{"data":{"norad_id":67237,"epoch":"2026-05-25T04:33:52.004736Z","epoch_age_seconds":57969,"freshness":"FRESH","line1":"1 67237U 25311B   26145.19018524 -.00000093  00000+0  67182-4 0  9995","line2":"2 67237  50.0058 198.0795 0000935 246.4600 113.6174 13.29323980 20288","mean_motion":13.2932398,"eccentricity":9.35e-5,"inclination_deg":50.0058,"raan_deg":198.0795,"arg_perigee_deg":246.46,"mean_anomaly_deg":113.6174,"bstar":6.7182e-5,"rev_number":2028,"period_min":108.3257371164,"perigee_km":1148.6103808133,"apogee_km":1150.0180141873,"semimajor_km":7527.4511975003,"source":"CELESTRAK","updated_at":"2026-05-25T13:38:06.821496Z"}}